Location: Le Domaine
(47.0333°N, 76.5361°W)
Time: 04:35:58
(UTC-04:00)

ISS - Visible Passes

Search period start: 23 October 2019 00:00
Search period end: 02 November 2019 00:00
Orbit: 411 x 421 km, 51.6° (Epoch: 23 October)

Date Brightness Start Highest point End Pass type
(mag) Time Alt. Az. Time Alt. Az. Time Alt. Az.
24 Oct -1.9 07:00:54 10° SSW 07:03:56 31° SE 07:06:57 10° ENE visible
25 Oct -1.2 06:12:59 10° S 06:15:30 20° SE 06:18:04 10° E visible
26 Oct -0.9 05:25:40 10° SSE 05:27:09 13° SE 05:28:43 10° ESE visible
26 Oct -3.5 07:00:01 10° SW 07:03:22 70° SSE 07:06:44 10° ENE visible
27 Oct -2.8 06:12:37 18° SSW 06:14:50 45° SE 06:18:05 10° ENE visible
28 Oct -2.1 05:26:28 29° SE 05:26:28 29° SE 05:29:19 10° E visible
28 Oct -3.6 06:59:35 10° WSW 07:02:55 61° NNW 07:06:17 10° ENE visible
29 Oct -0.3 04:40:11 11° E 04:40:11 11° E 04:40:20 10° E visible
29 Oct -3.9 06:13:05 37° WSW 06:14:17 85° NNW 06:17:40 10° ENE visible
30 Oct -2.4 05:26:41 40° E 05:26:41 40° E 05:29:01 10° ENE visible
30 Oct -3.1 06:59:35 12° W 07:02:34 41° N 07:05:47 10° ENE visible
31 Oct -0.2 04:40:11 11° ENE 04:40:11 11° ENE 04:40:19 10° ENE visible
31 Oct -3.4 06:13:05 40° WNW 06:13:50 49° NNW 06:17:08 10° ENE visible
01 Nov -2.1 05:26:31 31° NE 05:26:31 31° NE 05:28:30 10° ENE visible
01 Nov -2.8 06:59:25 12° WNW 07:02:13 35° N 07:05:22 10° ENE visible
